Probability
0 0 0 0 0 0 0 0 0 0 0 1 0 0 0 1 2 3 3 1 0 0 0 0 0 0 0 0 0 0 0 0 0 0 0 0 0 0 0 0 1 1 1
0 0 0 0 0 0 1 1 1 0 0 1 1 1 1 2 2 2 2 1 0 0 0 0 0 0 0 0 0 0 0 0 0 0 0 0 0 0 0 0 0 0 0
0 0 0 0 0 0 1 2 2 1 0 1 2 2 1 2 3 2 1 1 0 0 0 0 0 0 0 0 0 0 0 0 0 0 0 0 0 0 0 0 0 0 0
0 0 0 0 0 0 1 1 2 1 0 0 1 1 1 2 3 2 1 0 0 0 0 0 0 0 0 0 0 0 0 0 0 0 0 0 0 0 0 0 0 0 0
0 0 0 0 0 0 0 1 2 2 1 0 0 0 1 2 2 2 1 0 0 0 0 0 0 0 0 0 0 0 0 0 0 0 0 0 0 0 0 0 0 0 0
0 0 0 0 0 0 0 1 2 3 2 1 0 0 0 1 1 1 0 0 0 0 0 0 0 0 0 0 0 0 0 0 0 0 0 0 0 0 0 0 0 0 0
0 0 0 0 0 0 0 2 2 2 1 1 0 0 0 0 0 0 0 0 0 0 0 0 0 0 0 0 0 0 0 0 0 0 0 0 0 0 0 0 0 0 0
0 0 0 0 0 0 0 1 2 1 0 0 0 0 0 0 0 0 0 0 0 0 0 0 0 0 0 0 0 0 0 0 0 0 0 0 0 0 0 0 0 0 0
0 0 0 0 0 0 0 1 1 1 0 0 0 0 0 0 0 0 0 0 0 0 0 0 0 0 0 0 0 0 0 0 0 0 0 0 0 0 0 0 0 0 0
0 0 0 0 0 0 0 0 0 0 0 0 0 0 0 0 0 0 0 0 0 0 0 0 0 0 0 0 0 0 0 0 0 0 0 0 0 0 0 0 0 0 0
0 0 0 0 0 0 0 0 0 0 0 0 0 0 0 0 0 0 0 0 0 0 0 0 0 0 0 0 0 0 0 0 0 0 0 0 0 0 0 0 0 0 0
0 0 0 0 0 0 0 0 0 0 0 0 0 0 0 0 0 0 0 0 0 0 0 0 0 0 0 0 0 0 0 0 0 0 0 0 0 0 0 0 0 0 0
0 0 0 0 0 0 0 0 0 0 0 0 0 0 0 0 0 0 0 0 0 0 0 0 0 0 0 0 0 0 0 0 0 0 0 0 0 0 0 0 0 0 0
0 0 0 0 0 0 0 0 0 0 0 0 0 0 0 0 0 0 0 0 0 0 0 0 0 0 0 0 0 0 0 0 0 0 0 0 0 0 0 0 0 0 0
0 0 0 0 0 0 0 0 0 0 0 0 0 0 0 0 0 0 0 0 0 0 0 0 0 0 0 0 0 0 0 0 0 0 0 0 0 0 0 0 0 0 0
0 0 0 0 0 0 0 0 0 0 0 0 0 0 0 0 0 0 0 0 0 0 0 0 0 0 0 0 0 0 0 0 0 0 0 0 0 0 0 0 0 0 0
0 0 0 0 0 0 0 0 0 0 0 0 0 0 0 0 0 0 0 0 0 0 0 0 0 0 0 0 0 0 0 0 0 0 0 0 0 0 0 0 0 0 0
0 0 0 0 0 0 0 0 0 0 0 0 0 0 0 0 0 0 0 0 0 0 0 0 0 0 0 0 0 0 0 0 0 0 0 0 0 0 0 0 0 0 0
0 0 0 0 0 0 0 0 0 0 0 0 0 0 0 0 0 0 0 0 0 0 0 0 0 0 0 0 0 0 0 0 0 0 0 0 0 0 0 0 0 0 0
0 0 0 0 0 0 0 0 0 0 0 0 0 0 0 0 0 0 0 0 0 0 0 0 0 0 0 0 0 0 0 0 0 0 0 0 0 0 0 0 0 0 0
0 0 0 0 0 0 0 0 0 0 0 0 0 0 0 0 0 0 0 0 0 0 0 0 0 0 0 0 0 0 0 0 0 0 0 0 0 0 0 0 0 0 0
0 0 0 0 0 0 0 0 0 0 0 0 0 0 0 0 0 0 0 0 0 0 0 0 0 0 0 0 0 0 0 0 0 0 0 0 0 0 0 0 0 0 0
0 0 0 0 0 0 0 0 0 0 0 0 0 0 0 0 0 0 0 0 0 0 0 0 0 0 0 0 0 0 0 0 0 0 0 0 0 0 0 0 0 0 0
0 0 0 0 0 0 0 0 0 0 0 0 0 0 0 0 0 0 0 0 0 0 0 0 0 0 0 0 0 0 0 0 0 0 0 0 0 0 0 0 0 0 0
0 0 0 0 0 0 0 0 0 0 0 0 0 0 0 0 0 0 0 0 0 0 0 0 0 0 0 0 0 0 0 0 0 0 0 0 0 0 0 0 0 0 0
0 0 0 0 0 0 0 0 0 0 0 0 0 0 0 0 0 0 0 0 0 0 0 0 0 0 0 0 0 0 0 0 0 0 0 0 0 0 0 0 0 0 0
Wind_Speed
4 3 3 3 3 3 3 3 3 3 2 2 2 1 1 1 1 1 1 2 2 2 2 1 1 1 2 2 2 1 0 0 0 0 1 2 2 2 2 2 2 2 2
2 2 2 2 3 3 3 3 3 3 3 3 2 2 1 1 1 1 1 2 2 2 2 2 2 2 1 1 1 1 1 1 1 1 1 1 2 2 2 2 2 2 1
4 3 3 3 3 3 4 3 3 3 3 3 2 1 1 1 0 1 1 2 2 2 2 2 2 2 2 2 2 2 2 2 2 1 2 2 3 2 2 2 2 2 2
4 3 3 3 3 3 3 3 3 3 2 3 3 3 2 2 3 2 2 2 2 2 2 2 2 2 2 2 2 2 2 3 2 1 1 2 2 2 2 2 2 2 3
3 3 3 4 3 2 2 2 2 2 2 2 3 4 3 2 1 1 2 2 2 2 2 2 2 2 2 2 2 2 2 2 3 2 1 1 1 1 2 3 3 2 3
2 1 1 1 1 1 1 1 1 1 1 2 2 3 3 3 2 2 2 2 1 2 2 2 2 2 2 2 3 3 3 2 3 3 2 2 2 3 3 4 3 4 3
1 0 0 0 0 0 0 0 1 1 1 1 2 3 3 4 4 3 3 2 2 2 3 2 3 2 2 2 2 2 3 3 3 3 3 3 3 2 3 3 3 3 3
0 0 1 1 1 1 0 0 1 1 1 1 2 1 2 2 2 2 2 3 3 3 3 3 3 3 3 2 2 2 2 2 3 3 3 3 3 3 3 3 2 2 3
1 1 0 0 0 0 0 1 1 1 1 1 1 1 1 1 2 1 1 2 2 2 2 2 3 3 2 2 2 2 3 2 3 3 3 2 2 2 2 2 3 3 3
1 1 1 1 1 1 1 1 0 0 1 1 1 1 1 1 1 1 2 2 2 1 2 2 2 2 2 2 2 2 2 2 3 2 3 3 2 2 2 2 2 3 4
1 1 1 2 1 1 1 1 1 1 1 1 1 1 1 1 1 1 2 2 2 2 2 3 3 3 2 2 2 3 3 3 3 2 3 3 3 2 2 2 2 3 3
1 1 2 2 2 2 1 1 2 1 2 1 1 1 1 1 1 1 2 1 2 2 2 3 3 3 3 3 4 4 4 4 4 3 3 3 2 3 2 2 3 3 3
2 2 2 2 2 2 2 1 2 2 2 2 1 1 1 1 1 2 2 2 2 2 2 2 3 3 3 4 4 4 4 4 4 4 4 4 3 3 3 3 3 3 3
1 2 2 2 3 2 2 2 2 2 2 2 1 2 2 2 2 2 2 2 2 2 2 3 3 3 3 4 3 3 3 3 3 3 4 4 4 4 4 4 4 3 3
1 1 2 2 3 3 3 3 3 3 2 2 2 2 2 2 2 2 2 2 2 2 2 2 3 3 3 3 3 3 3 3 3 3 3 4 5 5 5 4 4 3 3
1 2 2 3 3 3 3 3 3 3 2 2 2 3 2 2 2 2 2 2 2 2 2 3 3 3 3 5 5 4 4 4 4 4 4 4 4 6 7 7 6 5 5
2 2 2 2 3 3 3 3 3 3 2 2 3 3 2 2 2 2 2 2 2 2 2 3 3 4 5 6 6 5 4 4 4 4 4 3 4 4 4 5 5 5 6
2 2 2 2 2 3 3 3 3 2 2 2 3 3 3 3 3 2 2 2 2 2 3 3 3 4 5 6 6 5 3 4 4 4 5 5 5 5 4 4 4 5 5
2 2 2 2 2 3 3 3 3 3 2 3 3 4 3 3 3 3 3 2 2 3 3 3 3 4 5 6 6 4 3 3 4 4 4 5 5 7 6 4 5 5 5
1 1 2 2 2 3 3 2 3 3 4 4 4 4 3 3 3 3 3 3 2 3 3 3 3 4 4 6 6 4 2 3 3 4 4 6 7 8 7 5 5 6 5
1 2 2 2 2 3 2 2 3 4 5 5 5 4 4 3 3 3 3 3 2 3 3 3 3 3 4 5 6 5 3 3 3 4 4 5 8 9 9 7 6 7 4
2 2 2 2 3 3 2 2 4 5 5 4 4 4 4 3 3 3 3 2 2 3 3 3 3 3 3 4 6 6 6 4 4 4 4 5 8 9 9 7 7 7 4
2 2 2 2 3 3 2 3 5 5 4 4 4 4 4 4 3 2 2 2 2 2 3 3 3 3 3 4 7 7 8 7 4 4 7 7 8 7 5 6 6 4 2
2 2 2 3 3 4 4 3 5 4 4 4 4 4 4 4 3 2 2 2 2 3 3 3 4 4 4 3 3 4 4 6 5 4 5 7 7 5 3 3 3 2 2
3 2 2 3 4 4 4 4 4 4 4 4 4 4 4 3 3 3 3 3 4 4 4 4 3 4 4 6 7 5 4 3 4 2 2 2 2 2 2 2 2 2 2
3 3 3 3 4 4 5 4 4 3 3 4 4 3 3 3 3 3 4 5 5 7 7 7 6 5 7 9 9 8 8 6 4 1 1 2 3 3 3 3 3 2 3
Wind_Direction
232 205 196 188 169 164 169 176 172 179 164 163 173 181 208 213 219 223 206 192 193 189 176 180 183 184 199 208 189 187 229 254 187 55 317 306 273 238 232 230 230 234 235
238 209 186 175 183 184 185 189 186 184 185 188 184 190 184 204 215 221 214 203 198 205 189 184 190 197 210 205 201 177 184 246 192 157 169 294 302 280 247 229 228 237 238
218 212 192 191 188 192 198 201 198 193 195 182 154 113 90 63 149 225 221 228 207 201 199 193 189 202 207 215 215 199 187 218 248 204 180 193 234 284 281 245 238 238 239
215 203 197 197 202 207 207 210 196 187 188 178 174 171 182 203 216 212 218 233 219 209 199 195 196 200 213 226 232 226 211 194 219 245 237 227 195 198 278 292 266 246 246
211 202 201 199 198 194 192 203 186 189 183 181 184 188 196 213 219 205 208 228 229 217 206 199 200 208 215 223 232 240 228 214 211 209 210 220 240 208 208 264 283 280 252
193 186 167 129 133 118 135 169 171 198 176 177 188 196 202 194 199 215 216 230 242 236 214 207 207 212 215 221 228 226 225 236 231 221 208 203 203 213 210 232 259 272 275
187 141 113 132 247 230 183 181 178 217 200 183 203 208 212 201 203 216 218 227 238 242 220 217 213 217 221 223 224 225 231 232 236 236 233 227 228 215 221 224 250 272 284
244 237 225 210 224 238 247 211 213 232 226 207 227 220 209 209 222 221 230 229 232 233 225 222 222 223 217 219 218 232 242 241 238 243 243 243 242 230 226 216 210 267 287
317 299 297 255 244 246 273 258 257 302 310 273 258 245 218 221 230 229 229 241 238 236 222 226 227 224 217 215 215 233 242 239 243 245 245 254 258 246 240 232 209 203 243
325 347 4 21 8 9 359 3 2 314 324 309 271 273 250 238 232 224 230 250 258 230 214 225 226 226 225 218 219 235 238 240 248 252 247 256 268 262 249 241 233 221 224
313 352 9 9 10 18 17 4 351 355 352 334 309 289 273 255 238 242 242 239 249 244 221 220 223 220 222 220 220 235 232 236 250 253 248 257 257 256 252 249 243 234 227
34 29 18 7 5 2 357 349 337 335 321 323 333 316 310 307 276 271 273 269 254 252 250 232 226 224 224 225 223 229 235 233 238 245 246 253 252 250 255 246 246 238 231
44 23 11 357 347 340 333 330 330 321 325 340 346 337 324 305 283 279 286 285 273 268 266 256 237 230 227 230 234 230 235 236 237 237 237 246 243 249 254 251 250 249 242
46 3 349 339 338 341 333 327 328 331 336 342 336 321 308 296 289 294 292 286 277 262 256 255 254 246 237 234 236 237 237 237 241 241 239 240 237 242 244 245 248 253 245
360 340 336 337 342 344 340 334 329 330 331 328 320 307 311 313 315 309 298 295 288 274 265 260 261 258 248 237 232 234 236 236 245 251 248 247 249 251 252 249 243 237 241
285 318 333 340 340 336 332 332 324 317 316 300 297 310 324 326 321 313 306 303 296 291 283 266 258 257 257 258 249 246 235 237 238 249 257 257 252 258 260 260 254 241 235
283 300 307 311 317 316 321 318 314 316 315 304 308 313 314 313 311 311 310 296 289 289 280 272 264 260 262 262 259 258 246 240 239 240 245 252 256 255 257 258 261 258 261
276 283 292 303 311 314 320 319 327 330 317 314 318 318 312 306 310 307 295 292 288 277 271 272 271 271 272 270 266 264 255 246 243 239 237 243 250 248 254 246 251 256 259
263 266 282 291 313 322 324 331 333 336 330 318 314 309 304 300 304 297 293 291 287 283 276 274 273 273 279 277 274 268 250 251 251 246 242 244 247 251 252 242 244 257 264
330 330 334 338 336 329 333 342 334 335 323 314 308 305 300 292 288 286 291 296 289 281 281 279 275 272 279 281 281 276 255 255 261 259 250 249 254 256 247 237 235 248 259
358 3 358 341 327 328 341 340 331 319 312 313 313 313 309 300 293 295 299 301 298 296 289 283 284 276 276 278 282 281 268 257 259 262 263 257 259 259 254 249 241 251 259
359 1 353 333 334 341 347 334 321 317 319 318 316 315 314 310 306 299 301 301 290 287 289 293 298 295 289 287 288 284 284 283 255 257 262 264 265 261 257 252 254 257 248
348 348 344 330 337 345 342 317 315 324 323 320 314 313 315 312 310 300 298 299 286 277 284 287 289 300 303 298 297 288 286 286 275 265 270 274 273 268 257 257 256 241 222
346 346 343 331 329 335 336 325 320 325 322 312 311 314 316 315 313 306 295 286 278 276 280 283 286 295 298 299 302 295 289 287 284 277 273 272 271 269 270 272 260 240 225
333 336 322 312 314 323 324 327 326 323 314 308 308 311 307 304 306 302 286 284 271 268 278 276 275 281 286 288 296 299 289 288 287 302 309 295 289 281 283 280 265 249 236
332 329 323 314 311 314 312 319 321 316 304 304 306 304 303 302 303 305 309 298 297 301 301 299 298 287 288 299 300 300 301 300 296 274 263 275 276 279 280 277 278 267 253